Location: Bay Shore Mobile Home Park
(38.5762°N, 75.0841°W)
Time: 12:38:45
(UTC+00:00)

Envisat - Pass Details

Date: 06 October 2024
Orbit: 761 x 763 km, 98.3° (Epoch: 06 November)

Event Time Altitude Azimuth Distance (km) Brightness Sun altitude
Rises 07:34:55 0° 20° (NNE) 3,233 6.8 -39.8°
Reaches altitude 10° 07:37:21 10° 28° (NNE) 2,302 6.0 -39.4°
Enters shadow 07:38:50 19° 36° (NE) 1,772 5.3 -39.1°
